owner,sensor,date,latitude,longitude,vertical_datum,wind_speed,wind_to_direction,wind_speed_of_gust,qcFlag 
TABS,ioos:station:wmo:42043:1,2003-07-21T13:09:00Z,28.9818,-94.9186,4.0,5.651920028,200.6155321,8.37,'11111222,11111222,11111222' 
TABS,ioos:station:wmo:42043:1,2003-07-21T13:39:00Z,28.9818,-94.9186,4.0,5.680580956,201.3707828,8.26,'11111222,11111222,11111222' 
TABS,ioos:station:wmo:42043:1,2003-07-21T14:09:00Z,28.9818,-94.9186,4.0,5.981412877,201.3746612,8.43,'11111222,11111222,11111222' 
TABS,ioos:station:wmo:42043:1,2003-07-21T14:39:00Z,28.9818,-94.9186,4.0,5.90241476,200.7379897,8.03,'11111222,11111222,11111222' 
TABS,ioos:station:wmo:42043:1,2003-07-21T15:09:00Z,28.9818,-94.9186,4.0,5.028130865,205.1891453,7.0,'11111222,11111222,11111222' 
TABS,ioos:station:wmo:42043:1,2003-07-21T15:39:00Z,28.9818,-94.9186,4.0,4.974866832,201.4593818,6.92,'11111222,11111222,11111222' 
TABS,ioos:station:wmo:42043:1,2003-07-21T16:09:00Z,28.9818,-94.9186,4.0,4.452998989,201.6104249,6.17,'11111222,11111222,11111222' 
TABS,ioos:station:wmo:42043:1,2003-07-21T16:39:00Z,28.9818,-94.9186,4.0,4.691279143,199.9415324,6.91,'11111222,11111222,11111222' 
TABS,ioos:station:wmo:42043:1,2003-07-21T17:09:00Z,28.9818,-94.9186,4.0,4.328660301,201.4082974,6.24,'11111222,11111222,11111222' 
TABS,ioos:station:wmo:42043:1,2003-07-21T17:39:00Z,28.9818,-94.9186,4.0,4.513280403,190.3390968,6.77,'11111222,11111222,11111222' 
TABS,ioos:station:wmo:42043:1,2003-07-21T18:09:00Z,28.9818,-94.9186,4.0,4.783523806,190.7228508,6.14,'11111222,11111222,11111222' 
TABS,ioos:station:wmo:42043:1,2003-07-21T18:39:00Z,28.9818,-94.9186,4.0,5.243071619,184.0468887,6.9,'11111222,11111222,11111222' 
TABS,ioos:station:wmo:42043:1,2003-07-21T19:09:00Z,28.9818,-94.9186,4.0,5.299075391,183.3539647,6.71,'11111222,11111222,11111222' 
TABS,ioos:station:wmo:42043:1,2003-07-21T19:39:00Z,28.9818,-94.9186,4.0,6.066712454,184.2540369,7.63,'11111222,11111222,11111222' 
TABS,ioos:station:wmo:42043:1,2003-07-21T20:09:00Z,28.9818,-94.9186,4.0,6.125112244,184.0258362,7.79,'11111222,11111222,11111222' 
TABS,ioos:station:wmo:42043:1,2003-07-21T20:39:00Z,28.9818,-94.9186,4.0,6.304197015,177.9093932,7.79,'11111222,11111222,11111222' 
TABS,ioos:station:wmo:42043:1,2003-07-21T21:09:00Z,28.9818,-94.9186,4.0,6.472372054,183.5434048,8.02,'11111222,11111222,11111222' 
TABS,ioos:station:wmo:42043:1,2003-07-21T21:39:00Z,28.9818,-94.9186,4.0,6.363466037,181.8913607,7.89,'11111222,11111222,11111222' 
TABS,ioos:station:wmo:42043:1,2003-07-21T22:09:00Z,28.9818,-94.9186,4.0,5.851922761,178.5314132,7.69,'11111222,11111222,11111222' 
TABS,ioos:station:wmo:42043:1,2003-07-21T22:39:00Z,28.9818,-94.9186,4.0,6.413462403,171.9332976,8.57,'11111222,11111222,11111222' 
TABS,ioos:station:wmo:42043:1,2003-07-21T23:09:00Z,28.9818,-94.9186,4.0,6.214209523,176.1248133,7.83,'11111222,11111222,11111222' 
TABS,ioos:station:wmo:42043:1,2003-07-21T23:39:00Z,28.9818,-94.9186,4.0,5.62353981,183.9769321,7.33,'11111222,11111222,11111222' 
TABS,ioos:station:wmo:42043:1,2003-07-22T00:09:00Z,28.9818,-94.9186,4.0,5.69197681,186.9629,7.23,'11111222,11111222,11111222' 
TABS,ioos:station:wmo:42043:1,2003-07-22T00:39:00Z,28.9818,-94.9186,4.0,5.940538696,179.2285986,7.71,'11111222,11111222,11111222' 
TABS,ioos:station:wmo:42043:1,2003-07-22T01:09:00Z,28.9818,-94.9186,4.0,6.089630531,174.3458029,7.92,'11111222,11111222,11111222' 
TABS,ioos:station:wmo:42043:1,2003-07-22T01:39:00Z,28.9818,-94.9186,4.0,6.179198977,174.4280257,7.69,'11111222,11111222,11111222' 
TABS,ioos:station:wmo:42043:1,2003-07-22T02:09:00Z,28.9818,-94.9186,4.0,6.735888954,174.9752158,8.9,'11111222,11111222,11111222' 
TABS,ioos:station:wmo:42043:1,2003-07-22T02:39:00Z,28.9818,-94.9186,4.0,6.350952684,179.0077867,8.01,'11111222,11111222,11111222' 
TABS,ioos:station:wmo:42043:1,2003-07-22T03:09:00Z,28.9818,-94.9186,4.0,6.093972432,185.0839687,7.78,'11111222,11111222,11111222' 
TABS,ioos:station:wmo:42043:1,2003-07-22T03:39:00Z,28.9818,-94.9186,4.0,6.138876119,176.9187537,7.74,'11111222,11111222,11111222' 
TABS,ioos:station:wmo:42043:1,2003-07-22T04:09:00Z,28.9818,-94.9186,4.0,6.735911223,171.9783909,8.85,'11111222,11111222,11111222' 
TABS,ioos:station:wmo:42043:1,2003-07-22T04:39:00Z,28.9818,-94.9186,4.0,6.86406585,168.6575641,8.87,'11111222,11111222,11111222' 
TABS,ioos:station:wmo:42043:1,2003-07-22T05:09:00Z,28.9818,-94.9186,4.0,6.858002625,173.2171775,8.78,'11111222,11111222,11111222' 
TABS,ioos:station:wmo:42043:1,2003-07-22T05:39:00Z,28.9818,-94.9186,4.0,7.318531273,174.1182506,8.95,'11111222,11111222,11111222' 
TABS,ioos:station:wmo:42043:1,2003-07-22T06:09:00Z,28.9818,-94.9186,4.0,7.002463852,173.6871408,8.77,'11111222,11111222,11111222' 
TABS,ioos:station:wmo:42043:1,2003-07-22T06:39:00Z,28.9818,-94.9186,4.0,7.09228454,178.5459084,9.09,'11111222,11111222,11111222' 
TABS,ioos:station:wmo:42043:1,2003-07-22T07:09:00Z,28.9818,-94.9186,4.0,7.003777552,181.8821046,9.33,'11111222,11111222,11111222' 
TABS,ioos:station:wmo:42043:1,2003-07-22T07:39:00Z,28.9818,-94.9186,4.0,7.501799784,188.9728161,9.47,'11111222,11111222,11111222' 
TABS,ioos:station:wmo:42043:1,2003-07-22T08:09:00Z,28.9818,-94.9186,4.0,7.35451562,184.679735,9.63,'11111222,11111222,11111222' 
TABS,ioos:station:wmo:42043:1,2003-07-22T08:39:00Z,28.9818,-94.9186,4.0,8.103641157,187.7303307,10.51,'11111222,11111222,11111222' 
TABS,ioos:station:wmo:42043:1,2003-07-22T09:09:00Z,28.9818,-94.9186,4.0,7.997155744,192.4201949,10.38,'11111222,11111222,11111222' 
TABS,ioos:station:wmo:42043:1,2003-07-22T09:39:00Z,28.9818,-94.9186,4.0,7.959510035,190.3501019,10.42,'11111222,11111222,11111222' 
TABS,ioos:station:wmo:42043:1,2003-07-22T10:09:00Z,28.9818,-94.9186,4.0,7.517745673,195.903694,10.56,'11111222,11111222,11111222' 
TABS,ioos:station:wmo:42043:1,2003-07-22T10:39:00Z,28.9818,-94.9186,4.0,6.78720119,201.6134581,10.05,'11111222,11111222,11111222' 
TABS,ioos:station:wmo:42043:1,2003-07-22T11:09:00Z,28.9818,-94.9186,4.0,7.051950085,198.6920456,9.69,'11111222,11111222,11111222' 
TABS,ioos:station:wmo:42043:1,2003-07-22T11:39:00Z,28.9818,-94.9186,4.0,6.691375046,196.6748112,9.39,'11111222,11111222,11111222' 
TABS,ioos:station:wmo:42043:1,2003-07-22T12:09:00Z,28.9818,-94.9186,4.0,7.216494994,198.8368319,9.59,'11111222,11111222,11111222' 
TABS,ioos:station:wmo:42043:1,2003-07-22T12:39:00Z,28.9818,-94.9186,4.0,6.448131512,195.2864663,9.45,'11111222,11111222,11111222' 
TABS,ioos:station:wmo:42043:1,2003-07-22T13:09:00Z,28.9818,-94.9186,4.0,6.848415875,191.113225,8.91,'11111222,11111222,11111222' 
TABS,ioos:station:wmo:42043:1,2003-07-22T13:39:00Z,28.9818,-94.9186,4.0,5.913044901,191.7091842,8.43,'11111222,11111222,11111222' 
TABS,ioos:station:wmo:42043:1,2003-07-22T14:09:00Z,28.9818,-94.9186,4.0,6.100131146,192.3048605,8.18,'11111222,11111222,11111222' 
TABS,ioos:station:wmo:42043:1,2003-07-22T14:39:00Z,28.9818,-94.9186,4.0,6.050008264,180.0949139,8.17,'11111222,11111222,11111222' 
TABS,ioos:station:wmo:42043:1,2003-07-22T15:09:00Z,28.9818,-94.9186,4.0,5.839666086,187.4781313,7.58,'11111222,11111222,11111222' 
TABS,ioos:station:wmo:42043:1,2003-07-22T15:39:00Z,28.9818,-94.9186,4.0,6.772097164,191.7581185,8.68,'11111222,11111222,11111222' 
TABS,ioos:station:wmo:42043:1,2003-07-22T16:09:00Z,28.9818,-94.9186,4.0,6.88366908,188.9425261,8.89,'11111222,11111222,11111222' 
TABS,ioos:station:wmo:42043:1,2003-07-22T16:39:00Z,28.9818,-94.9186,4.0,7.124977193,191.5782197,9.3,'11111222,11111222,11111222' 
TABS,ioos:station:wmo:42043:1,2003-07-22T17:09:00Z,28.9818,-94.9186,4.0,6.959346234,188.0953645,9.0,'11111222,11111222,11111222' 
TABS,ioos:station:wmo:42043:1,2003-07-22T17:39:00Z,28.9818,-94.9186,4.0,6.27360343,195.3434036,8.33,'11111222,11111222,11111222' 
TABS,ioos:station:wmo:42043:1,2003-07-22T18:09:00Z,28.9818,-94.9186,4.0,6.605792912,188.0934951,8.7,'11111222,11111222,11111222' 
TABS,ioos:station:wmo:42043:1,2003-07-22T18:39:00Z,28.9818,-94.9186,4.0,6.305695838,198.7799203,8.53,'11111222,11111222,11111222' 
TABS,ioos:station:wmo:42043:1,2003-07-22T19:09:00Z,28.9818,-94.9186,4.0,6.821297531,197.9304388,9.2,'11111222,11111222,11111222' 
TABS,ioos:station:wmo:42043:1,2003-07-22T19:39:00Z,28.9818,-94.9186,4.0,6.849729922,198.9112463,8.84,'11111222,11111222,11111222' 
TABS,ioos:station:wmo:42043:1,2003-07-22T20:09:00Z,28.9818,-94.9186,4.0,6.422717493,198.8018484,8.15,'11111222,11111222,11111222' 
TABS,ioos:station:wmo:42043:1,2003-07-22T20:39:00Z,28.9818,-94.9186,4.0,6.056277735,197.6871737,7.53,'11111222,11111222,11111222' 
TABS,ioos:station:wmo:42043:1,2003-07-22T21:09:00Z,28.9818,-94.9186,4.0,6.210829252,198.785187,8.31,'11111222,11111222,11111222' 
TABS,ioos:station:wmo:42043:1,2003-07-22T21:39:00Z,28.9818,-94.9186,4.0,6.133881316,194.4442124,8.1,'11111222,11111222,11111222' 
TABS,ioos:station:wmo:42043:1,2003-07-22T22:09:00Z,28.9818,-94.9186,4.0,6.163456822,187.5518352,7.97,'11111222,11111222,11111222' 
TABS,ioos:station:wmo:42043:1,2003-07-22T22:39:00Z,28.9818,-94.9186,4.0,6.050297513,190.9572466,7.63,'11111222,11111222,11111222' 
TABS,ioos:station:wmo:42043:1,2003-07-22T23:09:00Z,28.9818,-94.9186,4.0,5.947049689,184.3397922,7.68,'11111222,11111222,11111222' 
TABS,ioos:station:wmo:42043:1,2003-07-22T23:39:00Z,28.9818,-94.9186,4.0,6.332558725,181.6290316,7.88,'11111222,11111222,11111222' 
TABS,ioos:station:wmo:42043:1,2003-07-23T00:09:00Z,28.9818,-94.9186,4.0,6.215593294,184.0595473,7.88,'11111222,11111222,11111222' 
TABS,ioos:station:wmo:42043:1,2003-07-23T00:39:00Z,28.9818,-94.9186,4.0,6.580007599,179.9131351,8.48,'11111222,11111222,11111222' 
TABS,ioos:station:wmo:42043:1,2003-07-23T01:09:00Z,28.9818,-94.9186,4.0,6.370031397,179.8203189,8.21,'11111222,11111222,11111222' 
TABS,ioos:station:wmo:42043:1,2003-07-23T01:39:00Z,28.9818,-94.9186,4.0,6.620913834,183.2904385,8.6,'11111222,11111222,11111222' 
TABS,ioos:station:wmo:42043:1,2003-07-23T02:09:00Z,28.9818,-94.9186,4.0,6.301468083,183.4574307,8.09,'11111222,11111222,11111222' 
TABS,ioos:station:wmo:42043:1,2003-07-23T02:39:00Z,28.9818,-94.9186,4.0,6.127291408,184.305672,7.71,'11111222,11111222,11111222' 
TABS,ioos:station:wmo:42043:1,2003-07-23T03:09:00Z,28.9818,-94.9186,4.0,5.720559413,180.8014959,7.74,'11111222,11111222,11111222' 
TABS,ioos:station:wmo:42043:1,2003-07-23T03:39:00Z,28.9818,-94.9186,4.0,6.304569771,182.1818468,7.86,'11111222,11111222,11111222' 
TABS,ioos:station:wmo:42043:1,2003-07-23T04:09:00Z,28.9818,-94.9186,4.0,6.480694407,174.4215872,8.27,'11111222,11111222,11111222' 
TABS,ioos:station:wmo:42043:1,2003-07-23T04:39:00Z,28.9818,-94.9186,4.0,7.087658287,184.0455011,9.16,'11111222,11111222,11111222' 
TABS,ioos:station:wmo:42043:1,2003-07-23T05:09:00Z,28.9818,-94.9186,4.0,7.332462069,181.4850311,9.24,'11111222,11111222,11111222' 
TABS,ioos:station:wmo:42043:1,2003-07-23T05:39:00Z,28.9818,-94.9186,4.0,8.020155859,179.6430103,10.2,'11111222,11111222,11111222' 
TABS,ioos:station:wmo:42043:1,2003-07-23T06:09:00Z,28.9818,-94.9186,4.0,8.400214283,179.5909628,10.7,'11111222,11111222,11111222' 
TABS,ioos:station:wmo:42043:1,2003-07-23T06:39:00Z,28.9818,-94.9186,4.0,8.591489976,178.9331274,11.12,'11111222,11111222,11111222' 
TABS,ioos:station:wmo:42043:1,2003-07-23T07:09:00Z,28.9818,-94.9186,4.0,8.243209326,181.599067,11.16,'11111222,11111222,11111222' 
TABS,ioos:station:wmo:42043:1,2003-07-23T07:39:00Z,28.9818,-94.9186,4.0,7.660652714,180.7481529,10.01,'11111222,11111222,11111222' 
TABS,ioos:station:wmo:42043:1,2003-07-23T08:09:00Z,28.9818,-94.9186,4.0,7.774020839,181.8430639,9.64,'11111222,11111222,11111222' 
TABS,ioos:station:wmo:42043:1,2003-07-23T08:39:00Z,28.9818,-94.9186,4.0,6.723942296,187.2626095,8.76,'11111222,11111222,11111222' 
TABS,ioos:station:wmo:42043:1,2003-07-23T09:09:00Z,28.9818,-94.9186,4.0,7.167600714,196.285957,9.61,'11111222,11111222,11111222' 
TABS,ioos:station:wmo:42043:1,2003-07-23T09:39:00Z,28.9818,-94.9186,4.0,5.969396954,199.9832703,8.48,'11111222,11111222,11111222' 
TABS,ioos:station:wmo:42043:1,2003-07-23T10:09:00Z,28.9818,-94.9186,4.0,7.586099129,192.7174068,10.03,'11111222,11111222,11111222' 
TABS,ioos:station:wmo:42043:1,2003-07-23T10:39:00Z,28.9818,-94.9186,4.0,8.205912503,194.9001091,10.35,'11111222,11111222,11111222' 
TABS,ioos:station:wmo:42043:1,2003-07-23T11:09:00Z,28.9818,-94.9186,4.0,7.567615212,194.6974954,10.48,'11111222,11111222,11111222' 
TABS,ioos:station:wmo:42043:1,2003-07-23T11:39:00Z,28.9818,-94.9186,4.0,6.721800354,195.0908231,8.73,'11111222,11111222,11111222' 
TABS,ioos:station:wmo:42043:1,2003-07-23T12:09:00Z,28.9818,-94.9186,4.0,6.872328572,197.6177924,9.49,'11111222,11111222,11111222' 
TABS,ioos:station:wmo:42043:1,2003-07-23T12:39:00Z,28.9818,-94.9186,4.0,6.568142812,198.7385568,8.93,'11111222,11111222,11111222' 
TABS,ioos:station:wmo:42043:1,2003-07-23T13:09:00Z,28.9818,-94.9186,4.0,4.270761056,211.7922077,6.89,'11111222,11111222,11111222' 
TABS,ioos:station:wmo:42043:1,2003-07-23T13:39:00Z,28.9818,-94.9186,4.0,4.772976011,207.8537315,8.39,'11111222,11111222,11111222' 
TABS,ioos:station:wmo:42043:1,2003-07-23T14:09:00Z,28.9818,-94.9186,4.0,5.542499436,195.9171697,7.92,'11111222,11111222,11111222' 
TABS,ioos:station:wmo:42043:1,2003-07-23T14:39:00Z,28.9818,-94.9186,4.0,4.284880395,200.6344589,6.65,'11111222,11111222,11111222' 
TABS,ioos:station:wmo:42043:1,2003-07-23T15:09:00Z,28.9818,-94.9186,4.0,3.608462276,200.9464736,5.82,'11111222,11111222,11111222' 
TABS,ioos:station:wmo:42043:1,2003-07-23T15:39:00Z,28.9818,-94.9186,4.0,2.394368393,195.2552935,4.51,'11111222,11111222,11111222' 
TABS,ioos:station:wmo:42043:1,2003-07-23T16:09:00Z,28.9818,-94.9186,4.0,2.242899909,203.936706,3.8,'11111222,11111222,11111222' 
TABS,ioos:station:wmo:42043:1,2003-07-23T16:39:00Z,28.9818,-94.9186,4.0,2.382141893,217.4953903,4.2,'11111222,11111222,11111222' 
TABS,ioos:station:wmo:42043:1,2003-07-23T17:09:00Z,28.9818,-94.9186,4.0,2.003821349,248.9420095,3.64,'11111222,11111222,11111222' 
TABS,ioos:station:wmo:42043:1,2003-07-23T17:39:00Z,28.9818,-94.9186,4.0,0.238537209,303.0237903,1.83,'11111222,11111222,11111222' 
TABS,ioos:station:wmo:42043:1,2003-07-23T18:09:00Z,28.9818,-94.9186,4.0,1.928989373,251.5650943,3.79,'11111222,11111222,11111222' 
TABS,ioos:station:wmo:42043:1,2003-07-23T18:39:00Z,28.9818,-94.9186,4.0,5.361436375,273.7429795,8.61,'11111222,11111222,11111222' 
TABS,ioos:station:wmo:42043:1,2003-07-23T19:09:00Z,28.9818,-94.9186,4.0,7.218448587,231.6377904,10.79,'11111222,11111222,11111222' 
TABS,ioos:station:wmo:42043:1,2003-07-23T19:39:00Z,28.9818,-94.9186,4.0,9.278146367,229.5461584,13.04,'11111222,11111222,11111222' 
TABS,ioos:station:wmo:42043:1,2003-07-23T20:09:00Z,28.9818,-94.9186,4.0,10.81473532,215.1744387,13.65,'11111222,11111222,11111222' 
TABS,ioos:station:wmo:42043:1,2003-07-23T20:39:00Z,28.9818,-94.9186,4.0,9.351005294,209.6082243,13.48,'11111222,11111222,11111222' 
TABS,ioos:station:wmo:42043:1,2003-07-23T21:09:00Z,28.9818,-94.9186,4.0,7.591659898,220.9943446,10.71,'11111222,11111222,11111222' 
TABS,ioos:station:wmo:42043:1,2003-07-23T21:39:00Z,28.9818,-94.9186,4.0,5.386585189,212.9526544,8.17,'11111222,11111222,11111222' 
TABS,ioos:station:wmo:42043:1,2003-07-23T22:09:00Z,28.9818,-94.9186,4.0,4.863095722,189.9467421,8.03,'11111222,11111222,11111222' 
TABS,ioos:station:wmo:42043:1,2003-07-23T22:39:00Z,28.9818,-94.9186,4.0,0.95713113,62.63143265,5.25,'11111222,11111222,11111222' 
TABS,ioos:station:wmo:42043:1,2003-07-23T23:09:00Z,28.9818,-94.9186,4.0,4.975399481,54.48875806,8.46,'11111222,11111222,11111222' 
TABS,ioos:station:wmo:42043:1,2003-07-23T23:39:00Z,28.9818,-94.9186,4.0,4.478939607,42.91876745,7.36,'11111222,11111222,11111222' 
TABS,ioos:station:wmo:42043:1,2003-07-24T00:09:00Z,28.9818,-94.9186,4.0,3.034485129,43.53088703,5.78,'11111222,11111222,11111222' 
TABS,ioos:station:wmo:42043:1,2003-07-24T00:39:00Z,28.9818,-94.9186,4.0,2.578992051,66.21760427,4.62,'11111222,11111222,11111222' 
TABS,ioos:station:wmo:42043:1,2003-07-24T01:09:00Z,28.9818,-94.9186,4.0,2.391401263,60.43307272,4.3,'11111222,11111222,11111222' 
TABS,ioos:station:wmo:42043:1,2003-07-24T01:39:00Z,28.9818,-94.9186,4.0,3.157530681,100.9544579,4.93,'11111222,11111222,11111222' 
TABS,ioos:station:wmo:42043:1,2003-07-24T02:09:00Z,28.9818,-94.9186,4.0,3.886412227,116.10389,4.92,'11111222,11111222,11111222' 
TABS,ioos:station:wmo:42043:1,2003-07-24T02:39:00Z,28.9818,-94.9186,4.0,4.056229777,116.5022395,4.95,'11111222,11111222,11111222' 
TABS,ioos:station:wmo:42043:1,2003-07-24T03:09:00Z,28.9818,-94.9186,4.0,5.903329569,122.4789812,7.06,'11111222,11111222,11111222' 
TABS,ioos:station:wmo:42043:1,2003-07-24T03:39:00Z,28.9818,-94.9186,4.0,5.776088642,120.8280111,6.82,'11111222,11111222,11111222' 
TABS,ioos:station:wmo:42043:1,2003-07-24T04:09:00Z,28.9818,-94.9186,4.0,5.4479721,124.6821904,6.78,'11111222,11111222,11111222' 
TABS,ioos:station:wmo:42043:1,2003-07-24T04:39:00Z,28.9818,-94.9186,4.0,5.384013373,126.9979342,6.36,'11111222,11111222,11111222' 
TABS,ioos:station:wmo:42043:1,2003-07-24T05:09:00Z,28.9818,-94.9186,4.0,5.682006688,131.4328851,6.84,'11111222,11111222,11111222' 
TABS,ioos:station:wmo:42043:1,2003-07-24T05:39:00Z,28.9818,-94.9186,4.0,5.248275907,133.6106669,6.66,'11111222,11111222,11111222' 
TABS,ioos:station:wmo:42043:1,2003-07-24T06:09:00Z,28.9818,-94.9186,4.0,5.533263052,128.8380248,6.8,'11111222,11111222,11111222' 
TABS,ioos:station:wmo:42043:1,2003-07-24T06:39:00Z,28.9818,-94.9186,4.0,5.426536649,130.4412894,6.69,'11111222,11111222,11111222' 
TABS,ioos:station:wmo:42043:1,2003-07-24T07:09:00Z,28.9818,-94.9186,4.0,5.616208686,133.5574056,7.37,'11111222,11111222,11111222' 
TABS,ioos:station:wmo:42043:1,2003-07-24T07:39:00Z,28.9818,-94.9186,4.0,4.86564487,138.2494197,6.31,'11111222,11111222,11111222' 
TABS,ioos:station:wmo:42043:1,2003-07-24T08:09:00Z,28.9818,-94.9186,4.0,4.873458731,147.0602072,6.47,'11111222,11111222,11111222' 
TABS,ioos:station:wmo:42043:1,2003-07-24T08:39:00Z,28.9818,-94.9186,4.0,5.455135195,190.1359365,7.02,'11111222,11111222,11111222' 
TABS,ioos:station:wmo:42043:1,2003-07-24T09:09:00Z,28.9818,-94.9186,4.0,5.653114186,196.8644484,7.39,'11111222,11111222,11111222' 
TABS,ioos:station:wmo:42043:1,2003-07-24T09:39:00Z,28.9818,-94.9186,4.0,5.57549101,197.7526705,7.82,'11111222,11111222,11111222' 
TABS,ioos:station:wmo:42043:1,2003-07-24T10:09:00Z,28.9818,-94.9186,4.0,6.078001316,194.2879167,7.91,'11111222,11111222,11111222' 
TABS,ioos:station:wmo:42043:1,2003-07-24T10:39:00Z,28.9818,-94.9186,4.0,5.613350158,203.1853442,8.24,'11111222,11111222,11111222' 
TABS,ioos:station:wmo:42043:1,2003-07-24T11:09:00Z,28.9818,-94.9186,4.0,5.597794208,208.4880721,7.9,'11111222,11111222,11111222' 
TABS,ioos:station:wmo:42043:1,2003-07-24T11:39:00Z,28.9818,-94.9186,4.0,4.777447017,205.2778736,7.19,'11111222,11111222,11111222' 
TABS,ioos:station:wmo:42043:1,2003-07-24T12:09:00Z,28.9818,-94.9186,4.0,4.25376304,205.4808688,6.49,'11111222,11111222,11111222' 
TABS,ioos:station:wmo:42043:1,2003-07-24T12:39:00Z,28.9818,-94.9186,4.0,4.399568161,204.293217,6.6,'11111222,11111222,11111222' 
TABS,ioos:station:wmo:42043:1,2003-07-24T13:09:00Z,28.9818,-94.9186,4.0,3.505709629,213.5995416,5.79,'11111222,11111222,11111222' 
TABS,ioos:station:wmo:42043:1,2003-07-24T13:39:00Z,28.9818,-94.9186,4.0,3.229133011,220.1010242,5.16,'11111222,11111222,11111222' 
TABS,ioos:station:wmo:42043:1,2003-07-24T14:09:00Z,28.9818,-94.9186,4.0,1.280624847,284.4702603,3.32,'11111222,11111222,11111222' 
TABS,ioos:station:wmo:42043:1,2003-07-24T14:39:00Z,28.9818,-94.9186,4.0,0.338378486,145.8405958,2.65,'11111222,11111222,11111222' 
TABS,ioos:station:wmo:42043:1,2003-07-24T15:09:00Z,28.9818,-94.9186,4.0,0.483735465,29.74460128,2.52,'11111222,11111222,11111222' 
TABS,ioos:station:wmo:42043:1,2003-07-24T15:39:00Z,28.9818,-94.9186,4.0,0.335410197,63.43459003,2.17,'11111222,11111222,11111222' 
TABS,ioos:station:wmo:42043:1,2003-07-24T16:09:00Z,28.9818,-94.9186,4.0,1.453444185,102.3154106,2.63,'11111222,11111222,11111222' 
TABS,ioos:station:wmo:42043:1,2003-07-24T16:39:00Z,28.9818,-94.9186,4.0,3.576940033,125.5566362,4.6,'11111222,11111222,11111222' 
TABS,ioos:station:wmo:42043:1,2003-07-24T17:09:00Z,28.9818,-94.9186,4.0,4.22933801,129.1467592,5.93,'11111222,11111222,11111222' 
TABS,ioos:station:wmo:42043:1,2003-07-24T17:39:00Z,28.9818,-94.9186,4.0,6.373484134,133.4109442,7.99,'11111222,11111222,11111222' 
TABS,ioos:station:wmo:42043:1,2003-07-24T18:09:00Z,28.9818,-94.9186,4.0,6.280835932,131.9671936,7.51,'11111222,11111222,11111222' 
TABS,ioos:station:wmo:42043:1,2003-07-24T18:39:00Z,28.9818,-94.9186,4.0,6.428724601,136.0717265,7.98,'11111222,11111222,11111222' 
TABS,ioos:station:wmo:42043:1,2003-07-24T19:09:00Z,28.9818,-94.9186,4.0,4.291072127,166.9355683,6.05,'11111222,11111222,11111222' 
TABS,ioos:station:wmo:42043:1,2003-07-24T19:39:00Z,28.9818,-94.9186,4.0,4.333335897,177.7518826,5.94,'11111222,11111222,11111222' 
TABS,ioos:station:wmo:42043:1,2003-07-24T20:09:00Z,28.9818,-94.9186,4.0,3.013254055,177.3372159,4.58,'11111222,11111222,11111222' 
TABS,ioos:station:wmo:42043:1,2003-07-24T20:39:00Z,28.9818,-94.9186,4.0,3.265593361,169.4129139,5.37,'11111222,11111222,11111222' 
TABS,ioos:station:wmo:42043:1,2003-07-24T21:09:00Z,28.9818,-94.9186,4.0,1.288099375,154.2309431,2.89,'11111222,11111222,11111222' 
TABS,ioos:station:wmo:42043:1,2003-07-24T21:39:00Z,28.9818,-94.9186,4.0,1.272831489,79.13107916,3.0,'11111222,11111222,11111222' 
TABS,ioos:station:wmo:42043:1,2003-07-24T22:09:00Z,28.9818,-94.9186,4.0,1.311068267,172.5499788,3.24,'11111222,11111222,11111222' 
TABS,ioos:station:wmo:42043:1,2003-07-24T22:39:00Z,28.9818,-94.9186,4.0,1.46342065,93.91866062,2.88,'11111222,11111222,11111222' 
TABS,ioos:station:wmo:42043:1,2003-07-24T23:09:00Z,28.9818,-94.9186,4.0,2.020618717,91.41834043,4.45,'11111222,11111222,11111222' 
TABS,ioos:station:wmo:42043:1,2003-07-24T23:39:00Z,28.9818,-94.9186,4.0,6.053247063,72.4027944,8.77,'11111222,11111222,11111222' 
TABS,ioos:station:wmo:42043:1,2003-07-25T00:09:00Z,28.9818,-94.9186,4.0,5.7182952,77.37298954,7.5,'11111222,11111222,11111222' 
TABS,ioos:station:wmo:42043:1,2003-07-25T00:39:00Z,28.9818,-94.9186,4.0,3.041134657,116.1441261,4.37,'11111222,11111222,11111222' 
TABS,ioos:station:wmo:42043:1,2003-07-25T01:09:00Z,28.9818,-94.9186,4.0,4.347620039,163.5660857,6.06,'11111222,11111222,11111222' 
TABS,ioos:station:wmo:42043:1,2003-07-25T01:39:00Z,28.9818,-94.9186,4.0,3.872531472,145.2022063,5.32,'11111222,11111222,11111222' 
TABS,ioos:station:wmo:42043:1,2003-07-25T02:09:00Z,28.9818,-94.9186,4.0,4.568435181,174.8512124,6.16,'11111222,11111222,11111222' 
TABS,ioos:station:wmo:42043:1,2003-07-25T02:39:00Z,28.9818,-94.9186,4.0,4.550703242,162.0829025,5.87,'11111222,11111222,11111222' 
TABS,ioos:station:wmo:42043:1,2003-07-25T03:09:00Z,28.9818,-94.9186,4.0,5.021573459,148.6843034,6.81,'11111222,11111222,11111222' 
TABS,ioos:station:wmo:42043:1,2003-07-25T03:39:00Z,28.9818,-94.9186,4.0,4.245373953,144.5881263,5.76,'11111222,11111222,11111222' 
TABS,ioos:station:wmo:42043:1,2003-07-25T04:09:00Z,28.9818,-94.9186,4.0,4.518960057,147.4707482,7.04,'11111222,11111222,11111222' 
TABS,ioos:station:wmo:42043:1,2003-07-25T04:39:00Z,28.9818,-94.9186,4.0,5.152125775,142.7300478,6.95,'11111222,11111222,11111222' 
TABS,ioos:station:wmo:42043:1,2003-07-25T05:09:00Z,28.9818,-94.9186,4.0,5.022210669,150.0148405,6.06,'11111222,11111222,11111222' 
TABS,ioos:station:wmo:42043:1,2003-07-25T05:39:00Z,28.9818,-94.9186,4.0,5.232829063,154.1697407,6.52,'11111222,11111222,11111222' 
TABS,ioos:station:wmo:42043:1,2003-07-25T06:09:00Z,28.9818,-94.9186,4.0,5.886569459,160.2416753,8.35,'11111222,11111222,11111222' 
TABS,ioos:station:wmo:42043:1,2003-07-25T06:39:00Z,28.9818,-94.9186,4.0,5.810826103,156.0377775,7.84,'11111222,11111222,11111222' 
TABS,ioos:station:wmo:42043:1,2003-07-25T07:09:00Z,28.9818,-94.9186,4.0,6.245998719,160.8400821,8.44,'11111222,11111222,11111222' 
TABS,ioos:station:wmo:42043:1,2003-07-25T07:39:00Z,28.9818,-94.9186,4.0,6.181520848,164.6150581,8.12,'11111222,11111222,11111222' 